SCP
-0 -0 0 0 0 0 0 0 0 0 0 0 0 0 -0 -0 -0 0 0 -0 -0 -0 -0 -0 -0 -0 0 0 0 0 0 0 0 0 0 0 0 0 0 0 0 0 0
-0 -0 0 0 0 0 0 0 0 0 0 0 0 0 0 -0 -0 0 0 -0 -0 -0 -0 -0 -0 -0 0 0 0 0 0 0 0 0 0 0 0 0 0 0 0 0 0
-0 -0 -0 0 0 0 0 0 0 0 0 0 0 0 0 0 0 0 0 0 0 -0 -0 -0 -0 -0 0 0 0 0 0 0 0 0 0 0 0 0 0 0 0 0 0
0 0 0 0 0 0 0 0 0 0 0 0 0 0 0 0 0 0 0 0 0 0 0 0 0 0 0 0 0 0 0 0 0 0 0 0 0 0 0 0 0 0 0
0 0 0 0 0 0 0 0 0 0 0 0 0 0 0 0 0 0 0 0 0 0 0 0 0 0 0 0 0 0 0 0 0 0 0 0 0 0 0 0 0 0 0
0 0 0 0 0 0 0 0 0 0 0 0 0 0 0 0 0 0 0 0 0 0 0 0 0 0 0 0 0 0 0 0 0 0 0 0 0 0 0 0 0 0 0
0 0 0 0 0 0 0 0 0 0 0 0 0 0 0 0 0 0 0 0 0 0 0 0 0 0 0 0 0 0 0 0 0 0 0 0 0 0 0 0 0 0 0
0 0 0 0 0 0 0 0 0 0 0 0 0 0 0 0 0 0 0 0 0 0 0 0 0 0 0 0 0 0 0 0 0 0 0 0 0 0 0 0 0 0 0
0 0 0 0 0 0 0 0 0 0 0 0 0 0 0 0 0 0 0 0 0 0 0 0 0 0 0 0 0 0 0 0 0 0 0 0 0 0 0 0 0 0 0
0 0 0 0 0 0 0 0 0 0 0 0 0 0 0 0 0 0 0 0 0 0 0 0 0 0 0 0 0 0 0 0 0 0 0 0 0 0 0 0 0 0 0
0 0 0 0 0 0 0 0 0 0 0 0 0 0 0 0 0 0 0 0 0 0 0 0 0 0 0 0 0 0 0 0 0 0 0 0 0 0 0 0 0 0 0
0 0 0 0 0 0 0 0 0 0 0 0 0 0 0 0 0 0 0 0 0 0 0 0 0 0 0 0 0 0 0 0 0 0 0 0 0 0 0 0 0 0 0
0 0 0 0 0 0 0 0 0 0 0 0 0 0 0 0 0 0 0 0 0 0 0 0 0 0 0 0 0 0 0 0 0 0 0 0 0 0 0 0 0 0 0
0 0 0 0 0 0 0 0 0 0 0 0 0 0 0 0 0 0 0 0 0 0 0 0 0 0 0 0 0 0 0 0 0 0 0 0 0 0 0 0 0 0 0
0 0 0 0 0 0 0 0 0 0 0 0 0 0 0 0 0 0 0 0 0 0 0 0 0 0 0 0 0 0 0 0 0 0 0 0 0 0 0 0 0 0 0
0 0 0 0 0 0 0 0 0 0 0 0 0 0 0 0 0 0 0 0 0 0 0 0 0 0 0 0 0 0 0 0 0 0 0 0 0 0 0 0 0 0 0
0 0 0 0 0 0 0 0 0 0 0 0 0 0 0 0 0 0 0 0 0 0 0 0 0 0 0 0 0 0 0 0 0 0 0 0 0 0 0 0 0 0 0
0 0 0 0 0 0 0 0 0 0 0 0 0 0 0 0 0 0 0 0 0 0 0 0 0 0 0 0 0 0 0 0 0 0 0 0 0 0 0 0 0 0 0
0 0 0 0 0 0 0 0 0 0 0 0 0 0 0 0 0 0 0 0 0 0 0 0 0 0 0 0 0 0 0 0 0 0 0 0 0 0 0 0 0 0 0
0 0 0 0 0 0 0 0 0 0 0 0 0 0 0 0 0 0 0 0 0 0 0 0 0 0 0 0 0 0 0 0 0 0 0 0 0 0 0 0 0 0 0
0 0 0 0 0 0 0 0 0 0 0 0 0 0 0 0 0 0 0 0 0 0 0 0 0 0 0 0 0 0 0 0 0 0 0 0 0 0 0 0 0 0 0
0 0 0 0 0 0 0 0 0 0 0 0 0 0 0 0 0 0 0 0 0 0 0 0 0 0 0 0 0 0 0 0 0 0 0 0 0 0 0 0 0 0 0
0 0 0 0 0 0 0 0 0 0 0 0 0 0 0 0 0 0 0 0 0 0 0 0 0 0 0 0 0 0 0 0 0 0 0 0 0 0 0 0 0 0 0
0 0 0 0 0 0 0 0 0 0 0 0 0 0 0 0 0 0 0 0 0 0 0 0 0 0 0 0 0 0 0 0 0 0 0 0 0 0 0 0 0 0 0
0 0 0 0 0 0 0 0 0 0 0 0 0 0 0 0 0 0 0 0 0 0 0 0 0 0 0 0 0 0 0 0 0 0 0 0 0 0 0 0 0 0 0
0 0 0 0 0 0 0 0 0 0 0 0 0 0 0 0 0 0 0 0 0 0 0 0 0 0 0 0 0 0 0 0 0 0 0 0 0 0 0 0 0 0 0
Wind_Speed
4 3 4 4 4 4 4 4 5 4 4 2 2 2 2 2 2 3 4 4 4 4 4 3 4 4 4 3 3 2 4 4 3 3 3 4 4 5 5 4 5 6 6
3 4 4 4 5 5 5 4 5 4 3 3 2 2 2 1 1 2 3 4 4 4 3 4 3 3 3 5 5 3 2 3 4 2 2 3 5 4 5 4 5 6 5
8 6 6 5 5 6 6 5 5 4 3 4 3 3 3 3 2 3 2 3 4 4 4 4 3 4 3 3 4 3 3 2 3 3 3 2 0 3 4 4 5 6 5
7 7 7 6 6 6 5 5 5 4 4 4 4 4 3 2 1 0 1 2 3 4 3 3 3 3 3 3 3 3 2 3 2 2 3 2 2 1 2 4 4 5 5
8 8 9 8 7 6 6 5 5 4 4 4 5 5 3 2 1 1 2 2 3 3 3 3 3 3 3 3 4 4 4 2 2 1 1 2 2 2 2 2 4 4 3
8 7 6 6 5 5 5 5 5 4 4 4 4 5 5 4 3 1 1 1 2 2 3 3 3 3 3 3 3 3 4 3 3 2 2 1 1 1 1 0 2 3 3
8 7 7 7 7 7 7 6 6 5 4 5 4 5 5 5 4 3 2 1 1 1 2 2 2 2 2 2 3 3 3 3 3 2 2 1 1 1 1 1 0 2 3
8 9 10 9 9 8 8 7 7 6 5 5 5 4 4 3 2 3 2 2 1 1 0 1 2 2 2 3 3 3 2 3 3 3 2 1 1 1 1 1 1 1 3
9 9 8 8 8 9 9 9 8 6 6 6 5 4 4 4 3 3 2 2 1 1 1 1 2 2 2 2 3 2 2 2 2 2 2 2 1 1 1 0 1 2 0
7 7 7 8 8 8 7 7 7 7 6 6 5 5 4 4 3 3 3 2 1 1 2 2 2 2 2 2 3 2 2 3 2 1 2 2 1 1 1 1 0 1 2
8 8 7 7 7 6 6 7 7 6 6 6 5 4 4 4 4 3 3 3 2 2 2 2 2 2 2 2 2 2 2 2 2 2 2 2 2 1 1 1 1 1 1
7 7 6 6 6 7 7 7 7 7 6 6 5 5 4 4 4 3 3 3 3 2 2 2 2 2 2 1 2 1 1 1 1 1 2 2 2 2 1 1 1 1 0
5 5 5 6 7 7 7 7 7 7 6 6 6 5 5 5 5 4 4 3 3 3 2 2 2 2 2 1 1 1 1 0 0 0 0 1 1 1 1 1 1 1 1
5 6 6 6 7 7 7 7 7 6 6 6 6 6 6 6 5 4 4 4 4 3 3 2 2 2 2 2 1 1 1 0 0 0 0 1 1 1 1 1 1 0 1
5 6 6 6 6 6 6 7 6 6 7 7 7 7 6 5 5 4 4 4 3 4 3 3 2 1 2 2 2 2 2 1 0 1 1 1 1 1 1 0 1 0 0
5 6 6 6 7 7 7 7 7 7 6 7 7 6 5 5 5 5 4 4 4 3 3 3 3 2 2 3 4 3 2 1 1 1 2 2 2 2 3 2 1 1 1
5 6 7 7 8 8 8 8 7 6 7 7 6 6 6 6 5 5 5 5 4 3 3 3 3 3 3 5 4 4 2 2 2 2 2 2 2 2 1 3 3 3 4
4 5 5 6 5 5 5 5 5 6 7 7 6 6 6 6 5 5 5 5 4 4 4 4 4 3 4 6 5 4 2 2 2 3 3 3 3 3 2 1 2 3 3
4 4 5 5 5 5 5 6 5 5 6 6 7 7 7 7 6 6 6 4 4 4 4 4 4 4 5 6 6 4 2 2 3 3 3 3 3 6 5 2 2 4 4
1 2 2 3 4 4 6 6 6 5 6 7 7 6 7 7 7 7 5 4 4 4 4 4 4 5 5 7 7 6 2 2 3 3 3 6 6 7 6 3 3 4 5
2 3 4 4 3 4 6 6 5 6 6 5 4 5 6 7 6 5 4 4 4 3 3 3 3 4 5 7 8 7 3 4 3 3 3 4 9 9 9 6 5 8 6
3 3 4 3 2 4 6 5 5 4 3 4 4 4 5 4 4 5 4 3 4 3 3 3 3 3 4 6 7 9 8 7 5 5 4 5 10 10 10 7 8 10 7
2 2 3 4 3 3 5 5 3 2 3 4 3 3 3 3 3 4 4 3 3 3 3 3 3 4 3 4 8 9 9 9 6 5 8 9 10 8 7 8 9 7 3
2 2 4 4 2 1 2 2 2 3 4 4 2 2 3 2 2 2 3 3 4 4 3 4 4 4 3 3 3 4 4 6 6 5 6 8 8 6 6 6 5 3 3
1 2 3 3 2 1 1 1 2 4 4 3 2 2 2 3 2 2 2 4 4 5 5 5 4 4 5 7 8 5 4 4 5 3 2 2 2 3 3 3 4 3 3
2 2 3 2 2 2 2 2 2 4 5 3 2 2 2 2 2 1 1 2 3 5 7 6 5 5 8 8 7 8 8 8 7 3 2 4 4 5 5 5 5 4 5
Wind_Direction
225 192 176 160 146 142 143 143 137 137 128 111 103 89 63 26 22 27 34 38 42 45 52 48 38 36 46 39 36 48 47 30 10 46 23 11 23 35 27 19 23 20 13
197 194 181 172 168 165 165 157 156 157 155 140 130 121 115 82 43 9 30 32 38 38 52 53 46 40 47 40 34 43 53 29 23 62 62 16 1 3 13 15 25 15 10
197 196 188 187 175 176 180 174 168 163 153 136 110 87 64 44 28 13 13 11 31 41 46 52 53 47 52 47 36 42 68 59 25 41 99 103 20 326 340 5 17 11 13
199 195 189 188 189 188 178 167 164 157 150 142 139 139 138 139 190 326 0 13 32 40 42 47 55 56 53 48 36 49 58 82 52 28 41 87 140 107 342 339 356 10 16
197 197 194 191 190 181 173 168 157 151 148 151 152 140 134 139 115 63 45 31 23 31 38 46 55 58 55 53 49 50 52 61 79 65 52 56 53 67 108 334 335 349 352
197 197 191 179 179 172 166 162 158 159 154 153 153 152 151 146 130 110 74 26 12 18 31 50 56 59 58 55 53 55 59 57 66 64 65 86 86 67 96 94 322 327 321
189 186 183 184 184 179 176 170 167 169 164 159 163 166 162 160 164 169 165 139 33 5 3 41 52 52 55 64 64 61 54 54 62 58 50 57 79 154 141 133 308 336 322
190 190 191 188 188 184 179 175 177 177 170 168 174 167 164 163 173 179 176 178 188 217 310 63 69 62 63 70 71 64 55 58 61 58 55 46 20 38 136 153 141 9 345
194 195 191 187 187 185 184 183 181 178 176 176 170 166 170 171 178 176 168 177 191 184 126 95 83 69 70 80 83 67 52 58 55 56 56 48 11 25 28 116 152 146 19
192 191 188 187 188 187 181 178 181 183 178 176 177 173 175 176 168 153 162 174 177 141 127 109 97 83 75 81 84 73 57 64 42 41 49 35 8 20 26 43 77 146 161
193 190 189 185 177 170 171 177 181 178 176 179 177 167 170 166 156 159 173 174 168 157 150 141 121 106 89 80 85 77 70 67 37 24 40 18 5 24 14 29 50 70 140
190 183 177 169 169 175 177 180 182 184 185 178 172 173 167 161 163 171 177 168 165 162 156 142 129 124 113 104 112 101 76 84 45 5 22 359 10 17 5 22 25 10 185
172 167 166 174 182 184 184 183 185 187 179 169 170 172 172 174 181 184 180 169 163 157 149 144 145 148 144 134 141 139 121 123 195 277 6 323 13 358 339 359 7 347 5
171 171 179 187 189 188 187 185 189 184 176 171 174 183 190 189 187 181 176 173 167 164 164 167 167 167 163 163 166 149 134 127 316 297 273 280 255 266 282 316 310 330 25
174 182 188 190 187 188 191 190 190 185 179 176 185 196 190 181 173 173 176 171 171 177 171 165 172 177 179 187 177 170 164 163 213 327 308 281 282 297 273 271 232 173 63
196 192 190 188 191 194 194 191 190 187 176 183 195 190 175 176 180 181 176 170 174 174 166 178 184 199 216 207 199 180 170 178 189 262 300 299 310 326 335 327 308 234 215
208 199 197 197 199 199 194 194 192 176 176 187 188 179 176 182 189 183 174 181 185 179 184 196 193 211 233 222 212 206 181 192 210 227 258 285 292 307 320 325 331 319 303
213 209 202 199 197 188 184 177 163 168 179 185 185 181 179 186 184 179 186 192 186 185 194 204 208 215 237 230 221 216 187 202 227 231 230 239 268 269 266 269 309 300 296
210 205 197 186 173 171 168 152 157 167 177 190 192 187 182 183 182 191 199 194 186 195 201 203 205 212 240 238 228 215 182 217 247 250 240 234 245 264 267 249 268 287 290
146 149 140 130 144 162 153 150 163 171 193 202 200 188 183 184 191 198 196 188 190 202 202 213 213 216 234 243 235 224 191 218 247 261 261 258 257 264 260 237 236 263 270
89 110 119 128 151 151 148 155 167 197 208 197 185 180 185 191 192 188 185 182 183 184 200 218 230 230 237 247 243 233 210 212 230 247 255 257 266 268 265 251 233 251 262
76 97 113 118 120 138 146 157 194 208 173 161 169 179 182 188 180 174 178 174 172 183 207 222 250 251 248 245 249 244 238 227 219 237 243 251 264 268 268 261 257 263 269
91 98 116 111 103 137 151 169 204 153 139 142 162 174 169 174 166 170 173 169 175 189 210 216 238 255 252 254 255 253 250 242 232 239 248 257 265 268 267 265 267 267 254
89 104 107 109 116 150 162 178 151 137 132 137 148 149 146 150 153 166 173 177 187 198 212 222 236 250 256 253 250 248 251 252 250 253 262 268 269 261 260 269 272 256 238
98 113 124 132 145 133 110 85 120 130 128 129 134 138 144 155 161 178 195 199 208 201 204 218 220 227 248 249 238 229 232 228 232 240 255 259 266 264 264 264 262 255 253
121 118 121 124 122 111 94 76 110 131 131 127 135 148 149 156 162 173 277 269 245 248 240 236 228 237 245 262 260 251 249 247 242 225 237 251 251 253 256 260 263 257 250